NIEUW!!! Volg onze weer- en natuurfoto's op Instagram @ weerstationmaaseik.be

WS Maaseik 1 Meer informatie WS Maaseik 1


WS Maaseik 2 Meer informatie WS Maaseik 2


Regen radar Meer informatie rain snow radar


Bezoek onze andere website:

Vorige versie
weerstation Maaseik


Bezoek ook eens deze sites:

Weerstation Geleen



Het weer levert geen direct gevaar op.    Er zijn geen waarschuwingen afgegeven.

15 daagse weersverwachting Rapperswil-Jona, Jona (CH)

  • Overzicht
  • Per uur
  • 15 dagen
  • Extra
  • Vergelijk
  • Kaarten
  • Dagkaart
  • Meer »
  • Info
  • Statistieken
  • Directe link
    Temp 6h Neerslag Wind  
 07:15     18:01    Daglengte: 10:46 Vandaag
13:00
14°
1.8 mm
2
19:00
11°
 
2
 07:13     18:03    Daglengte: 10:50 Morgen
01:00
 
1
07:00
 
1
13:00
10°
 
6
19:00
12.8 mm
3
 07:11     18:04    Daglengte: 10:53 Woensdag 26 Feb
01:00
16.0 mm
6
07:00
18.3 mm
6
13:00
22.4 mm
7
warningclass
19:00
22.6 mm
5
 07:09     18:06    Daglengte: 10:57 Donderdag 27 Feb
01:00
31.5 mm
5
warningclass
Locatie info
Region: See-Gaster
Latitude: 47.2302°N
Longitude: 8.8374°E
424 masl
Postcode: 8645
Temp/Neerslag /Baro Onweer/DauwpuntSneeuw
    Temp Baro 1h Neerslag Dauwpunt Wind UV BewolkingSneeuw  
 07:15     18:01    Daglengte: 10:46 Vandaag
08:00
Voelt als: 8.6°
1025.6 hPa 1.8 mm
48%
7.7°
2
Windvlaag: 2 m/s
88%
09:00
10°
Voelt als: 9.2°
1025.3 hPa
79%
7.9°
2
Windvlaag: 1.4 m/s
87%
10:00
10°
1025.0 hPa
71%
8.5°
2
Windvlaag: 1.7 m/s
77%
11:00
12°
1024.1 hPa
71%
9.0°
1
Windvlaag: 1.5 m/s
48%
12:00
13°
1023.0 hPa
18%
8.7°
1
Windvlaag: 0.1 m/s
13%
13:00
14°
1021.2 hPa
14%
7.8°
2
Windvlaag: 0.5 m/s
3%
14:00
15°
1019.6 hPa
14%
7.1°
3
Windvlaag: 0.9 m/s
6%
15:00
15°
1018.4 hPa
14%
7.0°
3
Windvlaag: 1.1 m/s
15%
16:00
15°
1017.4 hPa
14%
7.7°
3
Windvlaag: 1.2 m/s
1%
17:00
14°
1016.6 hPa
14%
8.8°
2
Windvlaag: 1.2 m/s
1%
18:00
12°
1016.1 hPa
14%
7.7°
2
Windvlaag: 1.4 m/s
2%
19:00
11°
1015.7 hPa
14%
6.3°
2
Windvlaag: 2.3 m/s
1%
20:00
10°
Voelt als: 9.0°
1015.4 hPa
14%
5.2°
2
Windvlaag: 2.6 m/s
0%
21:00
Voelt als: 8.6°
1015.3 hPa
14%
4.2°
2
Windvlaag: 2.6 m/s
0%
22:00
Voelt als: 8.0°
1015.3 hPa
15%
3.1°
2
Windvlaag: 2.1 m/s
0%
23:00
Voelt als: 7.6°
1014.7 hPa
14%
2.5°
2
Windvlaag: 1.6 m/s
1%
 07:13     18:03    Daglengte: 10:50 Morgen
00:00
Voelt als: 7.5°
1014.0 hPa
14%
2.5°
2
Windvlaag: 2.5 m/s
1%
01:00
Voelt als: 7.2°
1013.6 hPa
14%
2.7°
1
Windvlaag: 2.4 m/s
0%
02:00
Voelt als: 6.8°
1013.1 hPa
14%
2.6°
1
Windvlaag: 2 m/s
0%
03:00
Voelt als: 6.4°
1012.6 hPa
14%
2.3°
1
Windvlaag: 1.8 m/s
8%
04:00
Voelt als: 6.2°
1011.6 hPa
14%
2.3°
1
Windvlaag: 1.4 m/s
25%
05:00
Voelt als: 5.1°
1011.6 hPa
14%
2.4°
1
Windvlaag: 2 m/s
62%
06:00
Voelt als: 4.6°
1011.4 hPa
14%
2.0°
1
Windvlaag: 2.3 m/s
37%
07:00
Voelt als: 4.7°
1010.9 hPa
14%
2.1°
1
Windvlaag: 2.2 m/s
44%
08:00
Voelt als: 5.1°
1010.8 hPa
14%
2.5°
1
Windvlaag: 1.9 m/s
48%
09:00
Voelt als: 6.1°
1010.0 hPa
14%
3.0°
1
Windvlaag: 2.3 m/s
59%
10:00
Voelt als: 8.0°
1009.1 hPa
14%
2.4°
2
Windvlaag: 3 m/s
52%
11:00
10°
1008.2 hPa
14%
2.4°
3
Windvlaag: 1.6 m/s
89%
12:00
11°
1007.7 hPa
23%
2.6°
5
Windvlaag: 0.7 m/s
84%
13:00
10°
1007.2 hPa
29%
1.8°
6
Windvlaag: 1.1 m/s
86%
14:00
10°
Voelt als: 7.3°
1006.5 hPa 1.8 mm
82%
3.5°
5
Windvlaag: 1.4 m/s
89%
15:00
10°
Voelt als: 7.2°
1006.1 hPa 2.3 mm
82%
4.1°
5
Windvlaag: 1.4 m/s
89%
16:00
Voelt als: 7.2°
1005.7 hPa 1.8 mm
82%
4.6°
4
Windvlaag: 1.3 m/s
87%
17:00
Voelt als: 6.6°
1005.4 hPa 2.6 mm
82%
4.4°
4
Windvlaag: 1.5 m/s
86%
18:00
Voelt als: 6.0°
1005.3 hPa 2.5 mm
82%
5.3°
3
Windvlaag: 1.5 m/s
82%
19:00
Voelt als: 5.8°
1005.2 hPa 1.9 mm
82%
5.1°
3
Windvlaag: 3.3 m/s
71%
20:00
Voelt als: 5.0°
1004.9 hPa 2.7 mm
82%
4.6°
4
Windvlaag: 3.4 m/s
63%
21:00
Voelt als: 3.9°
1005.0 hPa 3.9 mm
82%
5.2°
5
Windvlaag: 3.1 m/s
89%
22:00
Voelt als: 2.9°
1005.4 hPa 2.9 mm
82%
4.6°
6
Windvlaag: 0 m/s
86%
23:00
Voelt als: 2.0°
1006.1 hPa 3.1 mm
82%
2.2°
6
Windvlaag: -0.4 m/s
68%
 07:11     18:04    Daglengte: 10:53 Woensdag 26 Feb
00:00
Voelt als: 1.8°
1005.7 hPa 3.3 mm
80%
1.3°
6
Windvlaag: 2.2 m/s
47%
01:00
Voelt als: 1.3°
1004.9 hPa
75%
1.3°
6
Windvlaag: 3.8 m/s
50%
02:00
Voelt als: 1.2°
1004.5 hPa 2.9 mm
77%
1.3°
6
Windvlaag: 3.4 m/s
82%
03:00
Voelt als: 1.0°
1004.1 hPa 3.3 mm
80%
1.9°
6
Windvlaag: 3.3 m/s
53%
04:00
Voelt als: -0.1°
1003.8 hPa 3.4 mm
90%
1.8°
6
Windvlaag: 3.7 m/s
87%
05:00
Voelt als: -1.9°
1004.7 hPa 2.7 mm
97%
0.4°
7
Windvlaag: 3.1 m/s
93%
06:00
Voelt als: -2.0°
1004.9 hPa 2.5 mm
100%
0.4°
6
Windvlaag: 1.8 m/s
76%
07:00
Voelt als: -2.4°
1004.9 hPa 3.6 mm
100%
0.1°
6
Windvlaag: 2.2 m/s
76%
08:00
Voelt als: -2.3°
1004.7 hPa 3.3 mm
100%
-0.6°
6
Windvlaag: 2.9 m/s
95%1 cm
09:00
Voelt als: -2.4°
1004.6 hPa 4.0 mm
100%
-0.7°
5
Windvlaag: 3 m/s
97%3 cm
10:00
Voelt als: -2.1°
1004.1 hPa 4.4 mm
100%
-1.2°
6
Windvlaag: 2.6 m/s
99%4 cm
11:00
Voelt als: -2.6°
1004.0 hPa 3.7 mm
100%
-1.3°
7
Windvlaag: 2 m/s
97%4 cm
12:00
Voelt als: -2.9°
1004.8 hPa 3.6 mm
100%
-1.1°
7
Windvlaag: 1.5 m/s
98%4 cm warningclass
13:00
Voelt als: -2.5°
1005.0 hPa 3.5 mm
100%
-2.4°
7
Windvlaag: 1.5 m/s
94%4 cm warningclass
14:00
Voelt als: -2.6°
1005.2 hPa 4.0 mm
100%
-2.0°
6
Windvlaag: 1.3 m/s
93%4 cm
15:00
Voelt als: -2.0°
1005.4 hPa 3.4 mm
100%
-2.0°
6
Windvlaag: 1.2 m/s
96%4 cm
16:00
Voelt als: -2.5°
1006.0 hPa 3.4 mm
100%
-1.9°
6
Windvlaag: 1.7 m/s
95%4 cm
17:00
Voelt als: -2.7°
1006.9 hPa 3.7 mm
94%
-1.7°
5
Windvlaag: 1.1 m/s
90%4 cm
18:00
Voelt als: -2.9°
1007.9 hPa 3.5 mm
94%
-1.7°
5
Windvlaag: 0.4 m/s
84%4 cm
19:00
Voelt als: -2.9°
1009.0 hPa 4.6 mm
47%
-1.1°
5
Windvlaag: 0.7 m/s
94%5 cm
20:00
Voelt als: -3.1°
1009.6 hPa 4.7 mm
100%
-1.2°
5
Windvlaag: 2.9 m/s
95%5 cm
21:00
Voelt als: -3.6°
1010.1 hPa 4.8 mm
100%
-1.2°
5
Windvlaag: 4.5 m/s
93%5 cm
22:00
Voelt als: -3.6°
1010.6 hPa 4.8 mm
100%
-1.3°
5
Windvlaag: 4.8 m/s
93%5 cm warningclass
23:00
Voelt als: -3.6°
1011.0 hPa 4.8 mm
100%
-1.2°
5
Windvlaag: 4.7 m/s
92%5 cm warningclass
 07:09     18:06    Daglengte: 10:57 Donderdag 27 Feb
00:00
Voelt als: -3.6°
1011.4 hPa 4.7 mm
100%
-0.9°
5
Windvlaag: 4.7 m/s
89%5 cm warningclass
01:00
Voelt als: -3.8°
1011.8 hPa 7.7 mm
100%
-0.8°
5
Windvlaag: 2.4 m/s
87%5 cm warningclass
02:00
Voelt als: -4.0°
1012.2 hPa 7.8 mm
100%
-1.2°
5
Windvlaag: 10.4 m/s
88%5 cm warningclass
03:00
Voelt als: -4.1°
1012.6 hPa 7.9 mm
100%
-1.5°
5
Windvlaag: 11.1 m/s
77%5 cm warningclass
04:00
Voelt als: -4.2°
1013.0 hPa 7.9 mm
100%
-1.6°
5
Windvlaag: 10.9 m/s
84%5 cm warningclass
05:00
Voelt als: -4.1°
1013.4 hPa 7.9 mm
99%
-1.7°
5
Windvlaag: 10.9 m/s
94%6 cm warningclass
06:00
Voelt als: -3.9°
1013.8 hPa 8.2 mm
100%
-1.9°
5
Windvlaag: 12.2 m/s
87%6 cm warningclass
07:00
Voelt als: -3.8°
1014.2 hPa 8.1 mm
100%
-2.0°
4
Windvlaag: 1.6 m/s
83%6 cm warningclass
Temp/Neerslag /Baro Onweer/DauwpuntSneeuw
    Temp Baro Neerslag Dauwpunt Wind BewolkingSneeuw  
 07:15     18:01    Daglengte: 10:46 Vandaag
10:00
10°
1025.0 hPa 1.8 mm 8.5°
2
77%
13:00
14°
1021.2 hPa   7.8°
2
3%
16:00
15°
1017.4 hPa   7.7°
3
1%
19:00
11°
1015.7 hPa   6.3°
2
1%
22:00
Voelt als: 8.0°
1015.3 hPa   3.1°
2
0%
 07:13     18:03    Daglengte: 10:50 Morgen
01:00
Voelt als: 7.2°
1013.6 hPa   2.7°
1
0%
04:00
Voelt als: 6.2°
1011.6 hPa   2.3°
1
25%
07:00
Voelt als: 4.7°
1010.9 hPa   2.1°
1
44%
10:00
Voelt als: 8.0°
1009.1 hPa   2.4°
2
52%
13:00
10°
1007.2 hPa   1.8°
6
86%
16:00
Voelt als: 7.2°
1005.7 hPa 5.9 mm 4.6°
4
87%
19:00
Voelt als: 5.8°
1005.2 hPa 6.9 mm 5.1°
3
71%
22:00
Voelt als: 2.9°
1005.4 hPa 9.6 mm 4.6°
6
86%
 07:11     18:04    Daglengte: 10:53 Woensdag 26 Feb
01:00
Voelt als: 1.3°
1004.9 hPa 6.5 mm 1.3°
6
50%
04:00
Voelt als: -0.1°
1003.8 hPa 9.6 mm 1.8°
6
87%
07:00
Voelt als: -2.4°
1004.9 hPa 8.8 mm 0.1°
6
76%
10:00
Voelt als: -2.1°
1004.1 hPa 11.6 mm -1.2°
6
99%4 cm
13:00
Voelt als: -2.5°
1005.0 hPa 10.7 mm -2.4°
7
94%4 cm warningclass
16:00
Voelt als: -2.5°
1006.0 hPa 10.8 mm -1.9°
6
95%4 cm
19:00
Voelt als: -2.9°
1009.0 hPa 11.8 mm -1.1°
5
94%5 cm
22:00
Voelt als: -3.6°
1010.6 hPa 14.3 mm -1.3°
5
93%5 cm warningclass
 07:09     18:06    Daglengte: 10:57 Donderdag 27 Feb
01:00
Voelt als: -3.8°
1011.8 hPa 17.2 mm -0.8°
5
87%5 cm warningclass
04:00
Voelt als: -4.2°
1013.0 hPa 23.5 mm -1.6°
5
84%5 cm warningclass
07:00
Voelt als: -3.8°
1014.2 hPa 24.2 mm -2.0°
4
83%6 cm warningclass
10:00
Voelt als: -0.9°
1014.1 hPa 23.1 mm -2.4°
4
87%
13:00
Voelt als: 0.7°
1013.6 hPa 23.1 mm -2.7°
4
90%
16:00
Voelt als: 0.8°
1010.4 hPa 24.0 mm -1.1°
2
91%
19:00
Voelt als: 1.5°
1007.5 hPa 29.5 mm -0.1°
1
92%
22:00
Voelt als: 0.9°
1006.9 hPa 35.4 mm 0.2°
2
92%
 07:08     18:07    Daglengte: 10:59 Vrijdag 28 Feb
01:00
Voelt als: 0.8°
1006.3 hPa 37.3 mm 0.8°
2
92%
04:00
Voelt als: 2.3°
1007.6 hPa 39.4 mm 2.3°
2
92%
07:00
Voelt als: 4.0°
1009.0 hPa 46.9 mm 3.8°
3
92%
10:00
Voelt als: 6.2°
1009.3 hPa 53.4 mm 3.6°
2
91%
13:00
Voelt als: 8.6°
1009.5 hPa 55.2 mm 3.3°
1
90%
16:00
Voelt als: 7.9°
1007.8 hPa 55.5 mm 3.5°
2
90%
19:00
Voelt als: 6.8°
1006.3 hPa 57.0 mm 3.5°
2
90%
22:00
Voelt als: 6.7°
1005.5 hPa 57.3 mm 3.6°
2
91%
 07:06     18:09    Daglengte: 11:03 Zaterdag 29 Feb
01:00
Voelt als: 6.4°
1004.8 hPa 59.0 mm 3.7°
2
92%
04:00
Voelt als: 5.4°
1002.5 hPa 60.0 mm 3.7°
2
92%
07:00
Voelt als: 4.4°
1000.2 hPa 61.4 mm 3.6°
2
92%
10:00
Voelt als: 6.6°
998.9 hPa 61.5 mm 3.9°
2
92%
13:00
10°
997.3 hPa 61.5 mm 3.8°
3
92%
16:00
Voelt als: 5.5°
1000.0 hPa 61.5 mm 3.4°
4
86%
19:00
Voelt als: 2.1°
1003.0 hPa 61.5 mm 2.5°
5
80%
22:00
Voelt als: 1.4°
1003.5 hPa 72.6 mm 1.0°
5
61%
 07:04     18:10    Daglengte: 11:06 Zondag 01 Maa
01:00
Voelt als: 0.6°
1003.7 hPa 75.5 mm -0.9°
5
42%
04:00
Voelt als: -0.5°
1004.8 hPa 75.5 mm -0.5°
4
44%
07:00
Voelt als: -1.6°
1005.9 hPa 75.5 mm -0.1°
4
45%
10:00
Voelt als: 0.6°
1006.1 hPa 77.7 mm 0.2°
4
44%
13:00
Voelt als: 2.9°
1006.1 hPa 79.9 mm 0.3°
4
42%
16:00
Voelt als: 1.8°
1007.1 hPa 82.0 mm 0.4°
4
66%
19:00
Voelt als: 0.9°
1008.4 hPa 82.5 mm 0.4°
3
90%
22:00
Voelt als: -0.2°
1009.7 hPa 82.8 mm 0.6°
3
90%
 07:02     18:12    Daglengte: 11:10 Maandag 02 Maa
01:00
Voelt als: -1.2°
1010.9 hPa 83.3 mm 0.4°
2
91%
04:00
Voelt als: -0.6°
1011.4 hPa 83.3 mm 0.2°
2
91% warningclass
07:00
Voelt als: 0.6°
1011.9 hPa 166.5 mm 0.1°
1
92% warningclass
13:00
Voelt als: 2.1°
1010.8 hPa 166.5 mm 0.6°
2
92%
19:00
Voelt als: 1.2°
1007.8 hPa 166.5 mm -0.1°
1
92%
 07:00     18:13    Daglengte: 11:13 Dinsdag 03 Maa
01:00
Voelt als: -1.0°
1005.6 hPa 166.6 mm -0.5°
1
62% warningclass
07:00
-0°
Voelt als: -0.5°
1006.9 hPa 167.3 mm -0.3°
1
92% warningclass
13:00
Voelt als: 1.7°
1010.1 hPa 168.0 mm -0.8°
2
92%
19:00
Voelt als: 1.5°
1012.1 hPa 168.3 mm 0.5°
1
85%
 06:58     18:15    Daglengte: 11:17 Woensdag 04 Maa
01:00
-2°
Voelt als: -3.6°
1006.5 hPa 177.8 mm -2.2°
2
0% warningclass
07:00
-1°
Voelt als: -2.8°
1002.5 hPa 181.4 mm -1.2°
2
92% warningclass
13:00
Voelt als: -1.5°
998.7 hPa 195.3 mm 1.1°
6
1%
19:00
Voelt als: -2.9°
1002.0 hPa 204.8 mm -1.2°
3
1% warningclass
 06:56     18:16    Daglengte: 11:20 Donderdag 05 Maa
01:00
-1°
Voelt als: -2.9°
1003.3 hPa 208.4 mm -1.4°
1
1% warningclass
07:00
Voelt als: 0.3°
1015.9 hPa 2.1 mm 0.9°
2
69%
13:00
Voelt als: 5.8°
1015.2 hPa 1.2 mm 4.6°
2
67%
19:00
Voelt als: 1.3°
1017.5 hPa 0.9 mm 1.5°
1
58%
 06:54     18:18    Daglengte: 11:24 Vrijdag 06 Maa
01:00
Voelt als: -0.7°
1019.6 hPa 0.6 mm 0.5°
2
53%
07:00
Voelt als: -0.2°
1019.3 hPa 1.1 mm 0.4°
2
51%
13:00
Voelt als: 7.9°
1016.9 hPa 1.1 mm 5.9°
2
53%
19:00
Voelt als: 3.1°
1017.6 hPa 1.0 mm 3.3°
1
58%
 06:52     18:19    Daglengte: 11:27 Zaterdag 07 Maa
01:00
Voelt als: 1.5°
1018.0 hPa 1.1 mm 2.3°
2
57%
07:00
Voelt als: 1.8°
1016.7 hPa 1.4 mm 2.0°
2
61%
13:00
Voelt als: 8.5°
1014.4 hPa 2.2 mm 6.2°
2
64%
19:00
Voelt als: 4.2°
1015.2 hPa 1.6 mm 4.1°
1
65%
 06:50     18:21    Daglengte: 11:31 Zondag 08 Maa
01:00
Voelt als: 1.3°
1016.6 hPa 0.9 mm 1.7°
2
63%
07:00
Voelt als: 0.0°
1017.2 hPa 0.7 mm 0.6°
2
54%
13:00
Voelt als: 7.8°
1015.8 hPa 0.8 mm 5.0°
2
45%
19:00
1016.5 hPa 0.4 mm 2.3°
1
50%
 06:48     18:22    Daglengte: 11:34 Maandag 09 Maa
01:00
Voelt als: 0.7°
1017.9 hPa 0.6 mm 0.8°
1
50%
07:00
Voelt als: -0.2°
1017.6 hPa 1.0 mm 0.1°
1
51%
13:00
Voelt als: 8.2°
1015.5 hPa 0.9 mm 4.6°
1
48%
19:00
Voelt als: 3.3°
1016.4 hPa 1.0 mm 2.4°
0
54%
 06:46     18:23    Daglengte: 11:37 Dinsdag 10 Maa
01:00
Voelt als: 1.0°
1017.3 hPa 1.2 mm 1.1°
1
62%
07:00
Voelt als: 0.3°
1016.8 hPa 1.4 mm 0.7°
1
65%
  CAPE Lifted Index Hail Supercell Tornado SRH 3km CL BTM PRES CL TOP PRES Swiss DWD icon SMHI TS
 07:15     18:01    Daglengte: 10:46 Vandaag
08:00 0 J/kg 8.2 K 0 % 0 % 0 % 0 m²/s² 0 0 8.62 80
09:00 0 J/kg 8.2 K 0 % 0 % 0 % 0 m²/s² 0 0 10.3 80
10:00 0 J/kg 8.1 K 0 % 0 % 0 % 0 m²/s² 0 0 11.61 3
11:00 5 J/kg 8.2 K 0 % 0 % 0 % 0 m²/s² 0 0 11.92 3
12:00 19 J/kg 7.6 K 0 % 0 % 0 % 0 m²/s² 0 0 12.04 2
13:00 4 J/kg 7.2 K 0 % 0 % 0 % 0 m²/s² 0 0 12.12 1
14:00 0 J/kg 7.0 K 0 % 0 % 0 % 0 m²/s² 0 0 13.12 0
15:00 0 J/kg 6.7 K 0 % 0 % 0 % 0 m²/s² 0 0 13.39 0
16:00 0 J/kg 6.5 K 0 % 0 % 0 % 0 m²/s² 0 0 13.64 0
17:00 0 J/kg 6.3 K 0 % 0 % 0 % 0 m²/s² 0 0 13.41 0
18:00 0 J/kg 6.3 K 0 % 0 % 0 % 0 m²/s² 0 0 14.49 0
19:00 0 J/kg 6.4 K 0 % 0 % 0 % 0 m²/s² 0 0 16.12 0
20:00 0 J/kg 7.3 K 0 % 0 % 0 % 0 m²/s² 0 0 16.6 0
21:00 0 J/kg 8.3 K 0 % 0 % 0 % 0 m²/s² 0 0 17.18 0
22:00 0 J/kg 9.0 K 0 % 0 % 0 % 0 m²/s² 0 0 17.13 0
23:00 0 J/kg 8.6 K 0 % 0 % 0 % 0 m²/s² 0 0 16.4 0
 07:13     18:03    Daglengte: 10:50 Morgen
00:00 0 J/kg 7.3 K 0 % 0 % 0 % 0 m²/s² 0 0 15.1 0
01:00 0 J/kg 5.0 K 0 % 0 % 0 % 0 m²/s² 0 0 13.04 0
02:00 0 J/kg 5.5 K 0 % 0 % 0 % 0 m²/s² 0 0 13.54 0
03:00 0 J/kg 6.2 K 0 % 0 % 0 % 0 m²/s² 0 0 14.24 3
04:00 0 J/kg 9.4 K 0 % 0 % 0 % 0 m²/s² 0 0 17.11 3
05:00 0 J/kg 10.5 K 0 % 0 % 0 % 0 m²/s² 0 0 17.91 2
06:00 0 J/kg 10.0 K 0 % 0 % 0 % 0 m²/s² 0 0 17.41 2
07:00 0 J/kg 10.1 K 0 % 0 % 0 % 0 m²/s² 0 0 17.21 1
08:00 0 J/kg 10.2 K 0 % 0 % 0 % 0 m²/s² 0 0 16.08 3
09:00 0 J/kg 10.5 K 0 % 0 % 0 % 0 m²/s² 0 0 15.33 3
10:00 0 J/kg 9.4 K 0 % 0 % 0 % 0 m²/s² 0 0 12.52 1
11:00 0 J/kg 8.4 K 0 % 0 % 0 % 0 m²/s² 0 0 8.73 3
12:00 0 J/kg 6.4 K 0 % 0 % 0 % 0 m²/s² 0 0 6.73 3
13:00 1 J/kg 5.1 K 0 % 0 % 0 % 0 m²/s² 0 0 5.46 3
14:00 8 J/kg 4.7 K 0 % 0 % 0 % 0 m²/s² 0 0 5.06 61
15:00 5 J/kg 3.3 K 0 % 0 % 0 % 0 m²/s² 0 0 4.83 61
16:00 14 J/kg 3.1 K 0 % 0 % 0 % 0 m²/s² 0 0 4.24 61
17:00 30 J/kg 2.8 K 0 % 0 % 0 % 0 m²/s² 0 0 4.96 61
18:00 42 J/kg 2.1 K 0 % 0 % 0 % 0 m²/s² 0 0 2.79 80
19:00 113 J/kg 1.6 K 0 % 0 % 0 % 0 m²/s² 0 0 5.02 80
20:00 91 J/kg 2.4 K 0 % 0 % 0 % 0 m²/s² 0 0 2.88 80
21:00 41 J/kg 3.4 K 0 % 0 % 0 % 0 m²/s² 0 0 5.98 61
22:00 74 J/kg 4.0 K 0 % 0 % 0 % 0 m²/s² 0 0 7.84 61
23:00 30 J/kg 5.3 K 0 % 0 % 0 % 0 m²/s² 0 0 7.85 61
 07:11     18:04    Daglengte: 10:53 Woensdag 26 Feb
00:00 0 J/kg 5.3 K 0 % 0 % 0 % 0 m²/s² 0 0 6.17 61
01:00 2 J/kg 4.1 K 0 % 0 % 0 % 0 m²/s² 0 0 5.78 3
02:00 43 J/kg 4.3 K 0 % 0 % 0 % 0 m²/s² 0 0 6.25 3
03:00 17 J/kg 3.8 K 0 % 0 % 0 % 0 m²/s² 0 0 5.03 1
04:00 78 J/kg 3.5 K 0 % 0 % 0 % 0 m²/s² 0 0 4.16 3
05:00 8 J/kg 4.2 K 0 % 0 % 0 % 0 m²/s² 0 0 6.18 61
06:00 3 J/kg 3.9 K 0 % 0 % 0 % 0 m²/s² 0 0 5.52 61
07:00 32 J/kg 1.5 K 0 % 0 % 0 % 0 m²/s² 0 0 2.22 3
08:00 68 J/kg 0.4 K 0 % 0 % 0 % 0 m²/s² 0 0 0.85 85
09:00 0 J/kg 0.5 K 0 % 0 % 0 % 0 m²/s² 0 0 1.1 85
10:00 247 J/kg -0.4 K 0 % 0 % 0 % 0 m²/s² 0 0 1.34 85
11:00 166 J/kg 0.1 K 0 % 0 % 0 % 0 m²/s² 0 0 1.72 86
12:00 91 J/kg 0.6 K 0 % 0 % 0 % 0 m²/s² 0 0 2.55 95
13:00 91 J/kg 0.1 K 0 % 0 % 0 % 0 m²/s² 0 0 1.27 95
14:00 79 J/kg -0.2 K 0 % 0 % 0 % 0 m²/s² 0 0 0.46 85
15:00 125 J/kg -0.3 K 0 % 0 % 0 % 0 m²/s² 0 0 0.15 85
16:00 59 J/kg -0.5 K 0 % 0 % 0 % 0 m²/s² 0 0 -0.11 85
17:00 118 J/kg -1.3 K 0 % 0 % 0 % 0 m²/s² 0 0 -0.85 85
18:00 208 J/kg -1.5 K 0 % 0 % 0 % 0 m²/s² 0 0 -0.93 85
19:00 183 J/kg -1.3 K 0 % 0 % 0 % 0 m²/s² 0 0 -0.01 3
20:00 230 J/kg -1.4 K 0 % 0 % 0 % 0 m²/s² 0 0 0.58 85
21:00 194 J/kg -1.0 K 0 % 0 % 0 % 0 m²/s² 0 0 1.61 85
22:00 110 J/kg -0.2 K 0 % 0 % 0 % 0 m²/s² 0 0 2.47 85
23:00 22 J/kg 1.1 K 0 % 0 % 0 % 0 m²/s² 0 0 4.4 85
 07:09     18:06    Daglengte: 10:57 Donderdag 27 Feb
00:00 51 J/kg 1.6 K 0 % 0 % 0 % 0 m²/s² 0 0 4.66 85
01:00 27 J/kg 1.9 K 0 % 0 % 0 % 0 m²/s² 0 0 4.9 85
02:00 11 J/kg 2.5 K 0 % 0 % 0 % 0 m²/s² 0 0 5.89 85
03:00 0 J/kg 3.5 K 0 % 0 % 0 % 0 m²/s² 0 0 5.45 85
04:00 0 J/kg 4.6 K 0 % 0 % 0 % 0 m²/s² 0 0 5.92 85
05:00 1 J/kg 5.9 K 0 % 0 % 0 % 0 m²/s² 0 0 6.53 85
06:00 3 J/kg 8.1 K 0 % 0 % 0 % 0 m²/s² 0 0 9.78 85
07:00 6 J/kg 10.4 K 0 % 0 % 0 % 0 m²/s² 0 0 13.28 85
Temp Baro Wind Neerslag
  EWN Forecast EWN WRFDA DWD ICON FMI HIRLAM MET Norway GFS
 07:15     18:01    Daglengte: 10:46 Vandaag
10:00 10.5° 1025.0 hPa 1.6 m/s 1.8 mm 10.1° 1022.8 hPa 4.3 m/s 16.9 mm 10.9° 1025.2 hPa 0.9 m/s 2.3 mm 10.5° 1025.5 hPa 2.8 m/s 0.0 mm 10.6° 1025.2 hPa 1.3 m/s 12.3° 1023.7 hPa 1.4 m/s
13:00 14.2° 1021.2 hPa 1.7 m/s 0.0 mm 14.4° 1019.7 hPa 6.5 m/s 17.9 mm 14.3° 1021.1 hPa 0.2 m/s 0.1 mm 12.8° 1021.8 hPa 1.8 m/s 0.0 mm 15.3° 1021.3 hPa 1.4 m/s 14.7° 1021.4 hPa 2.8 m/s
16:00 15.3° 1017.4 hPa 3.1 m/s 0.0 mm 15.5° 1016.1 hPa 6.1 m/s 17.9 mm 15.6° 1018.0 hPa 2.5 m/s 0.0 mm 15.0° 1017.7 hPa 3.3 m/s 0.0 mm 15.7° 1017.3 hPa 2.5 m/s 14.8° 1017.8 hPa 2.8 m/s
19:00 10.7° 1015.7 hPa 1.9 m/s 0.0 mm 10.9° 1014.8 hPa 3.6 m/s 17.9 mm 12.2° 1016.0 hPa 0.8 m/s 0.0 mm 12.7° 1016.8 hPa 3.1 m/s 0.0 mm 9.2° 1015.6 hPa 1.7 m/s 10.1° 1017.4 hPa 2.2 m/s
22:00 8.8° 1015.3 hPa 1.8 m/s 0.0 mm 9.4° 1013.3 hPa 4.5 m/s 17.9 mm 9.8° 1015.5 hPa 0.9 m/s 0.0 mm 12.8° 1016.4 hPa 4.2 m/s 0.0 mm 6.3° 1014.5 hPa 1.2 m/s 9.0° 1016.3 hPa 1.6 m/s
 07:13     18:03    Daglengte: 10:50 Morgen
01:00 7.9° 1013.6 hPa 1.5 m/s 0.0 mm 8.3° 1012.1 hPa 4.2 m/s 17.9 mm 9.6° 1013.8 hPa 0.9 m/s 0.0 mm 9.0° 1015.5 hPa 1.4 m/s 0.0 mm 5.4° 1013.1 hPa 1.2 m/s 8.1° 1015.5 hPa 1.7 m/s
04:00 6.4° 1011.6 hPa 1.1 m/s 0.0 mm 7.1° 1010.0 hPa 3.8 m/s 17.9 mm 8.3° 1011.7 hPa 0.8 m/s 0.0 mm 6.6° 1013.2 hPa 0.7 m/s 0.0 mm 3.9° 1010.9 hPa 1.5 m/s 7.0° 1012.8 hPa 1.5 m/s
07:00 5.2° 1010.9 hPa 1.1 m/s 0.0 mm 6.6° 1008.6 hPa 3.6 m/s 17.9 mm 6.5° 1011.8 hPa 0.4 m/s 0.0 mm 4.6° 1011.9 hPa 0.2 m/s 0.0 mm 4.1° 1010.1 hPa 1.6 m/s 6.1° 1011.8 hPa 1.1 m/s
10:00 8.9° 1009.1 hPa 1.9 m/s 0.0 mm 10.4° 1007.5 hPa 5.8 m/s 17.9 mm 8.0° 1010.9 hPa 0.5 m/s 0.0 mm 8.3° 1008.7 hPa 2.0 m/s 0.0 mm 10.8° 1008.7 hPa 1.4 m/s 10.9° 1009.0 hPa 2.2 m/s
13:00 10.4° 1007.2 hPa 6.1 m/s 0.0 mm 8.4° 1007.1 hPa 7.0 m/s 18.5 mm 9.9° 1009.4 hPa 6.0 m/s 0.0 mm 10.5° 1006.4 hPa 7.7 m/s 0.0 mm 12.9° 1006.3 hPa 6.0 m/s 12.1° 1007.7 hPa 5.2 m/s
16:00 9.5° 1005.7 hPa 4.3 m/s 5.9 mm 8.8° 1004.6 hPa 7.5 m/s 26.8 mm 8.5° 1007.2 hPa 1.6 m/s 2.6 mm 10.4° 1004.3 hPa 7.6 m/s 0.0 mm 9.9° 1005.6 hPa 3.3 m/s 10.3° 1005.5 hPa 4.7 m/s
19:00 7.9° 1005.2 hPa 3.2 m/s 6.9 mm 7.7° 1004.3 hPa 5.7 m/s 30.9 mm 7.8° 1006.7 hPa 1.6 m/s 2.1 mm 9.3° 1003.5 hPa 5.4 m/s 0.0 mm 7.2° 1005.6 hPa 2.7 m/s 7.1° 1005.3 hPa 1.5 m/s
22:00 6.4° 1005.4 hPa 5.5 m/s 9.6 mm 5.7° 1004.2 hPa 4.8 m/s 39.1 mm 6.5° 1007.2 hPa 5.2 m/s 4.1 mm 7.7° 1004.1 hPa 8.4 m/s 0.0 mm 5.3° 1006.6 hPa 5.5 m/s 6.3° 1004.7 hPa 4.8 m/s
 07:11     18:04    Daglengte: 10:53 Woensdag 26 Feb
01:00 5.4° 1004.9 hPa 6.3 m/s 6.5 mm 4.3° 1002.8 hPa 7.8 m/s 42.2 mm 6.0° 1007.2 hPa 6.4 m/s 0.9 mm 5.6° 1004.3 hPa 7.3 m/s 0.0 mm 3.9° 1005.4 hPa 2.7 m/s 4.3° 1003.0 hPa 4.2 m/s
04:00 4.1° 1003.8 hPa 5.6 m/s 9.6 mm 3.8° 999.9 hPa 7.4 m/s 43.6 mm 5.2° 1004.6 hPa 5.1 m/s 0.2 mm 3.4° 1003.9 hPa 4.3 m/s 3.3° 1002.0 hPa 2.7 m/s
07:00 2.4° 1004.9 hPa 5.9 m/s 8.8 mm 1.4° 999.8 hPa 7.0 m/s 45.0 mm 3.6° 1005.6 hPa 8.1 m/s 0.4 mm 2.1° 1005.1 hPa 3.6 m/s 1.2° 1002.1 hPa 4.6 m/s
10:00 2.5° 1004.1 hPa 5.6 m/s 11.6 mm 0.4° 1001.5 hPa 8.7 m/s 54.4 mm 2.7° 1005.9 hPa 8.1 m/s 1.1 mm 2.5° 1004.0 hPa 3.2 m/s 2.5° 1002.4 hPa 5.4 m/s
13:00 2.6° 1005.0 hPa 6.7 m/s 10.7 mm 2.5° 1002.1 hPa 9.9 m/s 62.0 mm 2.2° 1007.1 hPa 8.3 m/s 2.7 mm 2.4° 1005.1 hPa 5.7 m/s 2.1° 1004.8 hPa 5.1 m/s
16:00 2.2° 1006.0 hPa 5.8 m/s 10.8 mm 1.3° 1002.5 hPa 9.1 m/s 62.9 mm 1.9° 1007.5 hPa 6.8 m/s 1.4 mm 2.2° 1006.4 hPa 4.8 m/s 1.9° 1006.3 hPa 5.5 m/s
19:00 1.5° 1009.0 hPa 4.8 m/s 11.8 mm 1.5° 1006.2 hPa 7.9 m/s 65.2 mm 1.4° 1009.3 hPa 3.8 m/s 0.4 mm 1.1° 1009.1 hPa 4.3 m/s 0.7° 1009.8 hPa 4.1 m/s
22:00 1.1° 1010.6 hPa 5.0 m/s 14.3 mm 0.6° 1009.3 hPa 4.7 m/s 67.3 mm 1.1° 1010.8 hPa 6.2 m/s 0.8 mm 1.0° 1010.4 hPa 4.4 m/s 0.5° 1012.7 hPa 3.6 m/s
 07:09     18:06    Daglengte: 10:57 Donderdag 27 Feb
01:00 0.9° 1011.8 hPa 5.0 m/s 17.2 mm -0.5° 1011.0 hPa 4.8 m/s 68.0 mm 1.1° 1012.5 hPa 6.5 m/s 0.8 mm 0.9° 1011.6 hPa 4.5 m/s 0.4° 1014.6 hPa 3.6 m/s
04:00 0.7° 1013.0 hPa 5.4 m/s 23.5 mm -0.9° 1012.6 hPa 6.2 m/s 68.8 mm 1.0° 1013.7 hPa 6.2 m/s 0.9 mm 0.9° 1012.9 hPa 4.5 m/s 0.2° 1016.1 hPa 4.6 m/s
07:00 0.6° 1014.2 hPa 4.5 m/s 24.2 mm -1.3° 1014.0 hPa 6.3 m/s 71.0 mm 1.0° 1014.1 hPa 2.7 m/s 0.8 mm 0.8° 1014.2 hPa 4.6 m/s -1.1° 1018.2 hPa 2.1 m/s
10:00 2.7° 1014.1 hPa 3.9 m/s 23.1 mm 2.7° 1013.9 hPa 4.1 m/s 2.0° 1016.6 hPa 1.8 m/s 23.1 mm
13:00 3.9° 1013.6 hPa 3.6 m/s 23.1 mm 3.7° 1013.7 hPa 3.8 m/s 5.6° 1012.3 hPa 1.7 m/s 23.1 mm
16:00 3.1° 1010.4 hPa 2.4 m/s 24.0 mm 3.1° 1010.7 hPa 2.4 m/s 3.7° 1007.2 hPa 2.6 m/s 24.0 mm
19:00 2.4° 1007.5 hPa 1.2 m/s 29.5 mm 2.5° 1007.6 hPa 1.0 m/s 1.5° 1006.6 hPa 3.2 m/s 29.5 mm
22:00 2.5° 1006.9 hPa 1.6 m/s 35.4 mm 2.5° 1006.9 hPa 1.4 m/s 2.4° 1006.7 hPa 4.0 m/s 35.4 mm
 07:08     18:07    Daglengte: 10:59 Vrijdag 28 Feb
01:00 2.7° 1006.3 hPa 1.9 m/s 37.3 mm 2.5° 1006.2 hPa 1.8 m/s 4.9° 1007.1 hPa 2.8 m/s 37.3 mm
04:00 4.4° 1007.6 hPa 2.3 m/s 39.4 mm 4.2° 1007.5 hPa 2.2 m/s 5.5° 1008.4 hPa 3.2 m/s 39.4 mm
07:00 5.9° 1009.0 hPa 2.5 m/s 46.9 mm 6.0° 1008.8 hPa 2.6 m/s 5.0° 1010.9 hPa 1.7 m/s 46.9 mm
10:00 7.3° 1009.3 hPa 1.9 m/s 53.4 mm 7.6° 1009.0 hPa 2.0 m/s 4.5° 1012.9 hPa 0.7 m/s 53.4 mm
13:00 9.0° 1009.5 hPa 1.4 m/s 55.2 mm 9.2° 1009.2 hPa 1.4 m/s 6.2° 1012.3 hPa 0.8 m/s 55.2 mm
16:00 8.7° 1007.8 hPa 1.8 m/s 55.5 mm 8.8° 1007.6 hPa 1.8 m/s 7.9° 1010.5 hPa 2.0 m/s 55.5 mm
19:00 8.1° 1006.3 hPa 2.1 m/s 57.0 mm 8.3° 1006.0 hPa 2.1 m/s 5.7° 1010.1 hPa 2.7 m/s 57.0 mm
22:00 8.0° 1005.5 hPa 2.1 m/s 57.3 mm 8.1° 1005.2 hPa 2.2 m/s 6.7° 1009.4 hPa 1.5 m/s 57.3 mm
 07:06     18:09    Daglengte: 11:03 Zaterdag 29 Feb
01:00 7.8° 1004.8 hPa 2.3 m/s 59.0 mm 7.9° 1004.4 hPa 2.3 m/s 6.9° 1008.7 hPa 2.8 m/s 59.0 mm
04:00 7.0° 1002.5 hPa 2.4 m/s 60.0 mm 7.0° 1002.0 hPa 2.3 m/s 7.1° 1008.1 hPa 2.4 m/s 60.0 mm
07:00 6.2° 1000.2 hPa 2.5 m/s 61.4 mm 6.1° 999.6 hPa 2.4 m/s 7.4° 1007.3 hPa 3.0 m/s 61.4 mm
10:00 8.1° 998.9 hPa 2.5 m/s 61.5 mm 8.0° 998.2 hPa 2.6 m/s 9.4° 1005.8 hPa 1.0 m/s 61.5 mm
13:00 10.1° 997.3 hPa 2.6 m/s 61.5 mm 9.9° 996.9 hPa 2.8 m/s 12.2° 1002.1 hPa 0.7 m/s 61.5 mm
16:00 7.9° 1000.0 hPa 3.9 m/s 61.5 mm 7.7° 1000.1 hPa 4.0 m/s 10.5° 998.4 hPa 2.5 m/s 61.5 mm
19:00 5.7° 1003.0 hPa 5.1 m/s 61.5 mm 5.5° 1003.4 hPa 5.3 m/s 7.5° 998.6 hPa 2.9 m/s 61.5 mm
22:00 5.0° 1003.5 hPa 4.9 m/s 72.6 mm 5.0° 1003.5 hPa 4.8 m/s 5.3° 1002.6 hPa 5.9 m/s 72.6 mm
 07:04     18:10    Daglengte: 11:06 Zondag 01 Maa
01:00 4.3° 1003.7 hPa 4.7 m/s 75.5 mm 4.4° 1003.7 hPa 4.3 m/s 2.9° 1003.8 hPa 8.9 m/s 75.5 mm
04:00 3.1° 1004.8 hPa 4.0 m/s 75.5 mm 3.4° 1004.7 hPa 4.2 m/s -0.0° 1006.4 hPa 2.8 m/s 75.5 mm
07:00 2.1° 1005.9 hPa 3.8 m/s 75.5 mm 2.3° 1005.7 hPa 4.0 m/s -0.2° 1008.4 hPa 1.4 m/s 75.5 mm
10:00 4.0° 1006.1 hPa 4.1 m/s 77.7 mm 4.2° 1005.7 hPa 4.0 m/s 2.2° 1010.3 hPa 4.9 m/s 77.7 mm
13:00 5.8° 1006.1 hPa 4.1 m/s 79.9 mm 6.1° 1005.7 hPa 4.0 m/s 3.1° 1010.5 hPa 4.7 m/s 79.9 mm
16:00 4.8° 1007.1 hPa 3.6 m/s 82.0 mm 4.9° 1006.7 hPa 3.4 m/s 3.2° 1012.0 hPa 5.4 m/s 82.0 mm
19:00 3.5° 1008.4 hPa 2.8 m/s 82.5 mm 3.7° 1007.7 hPa 2.8 m/s 1.2° 1015.6 hPa 2.6 m/s 82.5 mm
22:00 2.5° 1009.7 hPa 2.6 m/s 82.8 mm 2.7° 1009.0 hPa 2.5 m/s 0.5° 1018.4 hPa 3.6 m/s 82.8 mm
 07:02     18:12    Daglengte: 11:10 Maandag 02 Maa
01:00 1.4° 1010.9 hPa 2.3 m/s 83.3 mm 1.6° 1010.2 hPa 2.3 m/s -1.3° 1018.3 hPa 2.4 m/s 83.3 mm
04:00 1.1° 1011.4 hPa 1.5 m/s 83.3 mm 1.4° 1010.9 hPa 1.5 m/s -1.8° 1016.5 hPa 2.0 m/s 83.3 mm
07:00 0.9° 1011.9 hPa 0.8 m/s 83.3 mm 1.1° 1011.6 hPa 0.7 m/s -1.4° 1014.6 hPa 2.0 m/s 83.3 mm
13:00 3.8° 1010.8 hPa 1.8 m/s 83.3 mm 3.5° 1011.3 hPa 1.9 m/s 6.5° 1005.5 hPa 1.2 m/s 83.3 mm
19:00 1.9° 1007.8 hPa 1.0 m/s 83.3 mm 1.8° 1008.2 hPa 1.0 m/s 2.6° 1004.0 hPa 1.2 m/s 83.3 mm
 07:00     18:13    Daglengte: 11:13 Dinsdag 03 Maa
01:00 0.5° 1005.6 hPa 1.4 m/s 83.3 mm 0.4° 1005.8 hPa 1.3 m/s 1.4° 1003.8 hPa 2.0 m/s 83.3 mm
07:00 -0.1° 1006.9 hPa 0.9 m/s 83.9 mm -0.3° 1007.0 hPa 0.8 m/s 2.6° 1005.5 hPa 1.4 m/s 83.9 mm
13:00 3.2° 1010.1 hPa 1.7 m/s 84.0 mm 2.8° 1010.9 hPa 1.6 m/s 7.4° 1001.3 hPa 2.4 m/s 84.0 mm
19:00 2.1° 1012.1 hPa 1.0 m/s 84.2 mm 1.8° 1013.7 hPa 0.7 m/s 6.0° 993.9 hPa 4.8 m/s 84.2 mm
 06:58     18:15    Daglengte: 11:17 Woensdag 04 Maa
01:00 -1.5° 1006.5 hPa 1.6 m/s 89.2 mm -1.8° 1007.5 hPa 1.4 m/s 1.7° 995.1 hPa 3.2 m/s 89.2 mm
07:00 -0.6° 1002.5 hPa 1.7 m/s 92.1 mm -0.8° 1003.0 hPa 1.3 m/s 1.2° 996.9 hPa 5.8 m/s 92.1 mm
13:00 3.1° 998.7 hPa 5.8 m/s 98.8 mm 3.1° 998.7 hPa 5.8 m/s 98.8 mm
19:00 0.2° 1002.0 hPa 2.7 m/s 103.4 mm 0.2° 1002.0 hPa 2.7 m/s 103.4 mm
 06:56     18:16    Daglengte: 11:20 Donderdag 05 Maa
01:00 -1.1° 1003.3 hPa 1.4 m/s 104.6 mm -1.1° 1003.3 hPa 1.4 m/s 104.6 mm
07:00 1.8° 1015.9 hPa 1.5 m/s 2.1 mm
13:00 7.0° 1015.2 hPa 1.8 m/s 1.2 mm
19:00 2.3° 1017.5 hPa 1.2 m/s 0.9 mm
 06:54     18:18    Daglengte: 11:24 Vrijdag 06 Maa
01:00 1.5° 1019.6 hPa 2.0 m/s 0.6 mm
07:00 1.6° 1019.3 hPa 1.7 m/s 1.1 mm
13:00 8.6° 1016.9 hPa 1.7 m/s 1.1 mm
19:00 4.2° 1017.6 hPa 1.4 m/s 1.0 mm
 06:52     18:19    Daglengte: 11:27 Zaterdag 07 Maa
01:00 3.4° 1018.0 hPa 2.0 m/s 1.1 mm
07:00 3.2° 1016.7 hPa 1.6 m/s 1.4 mm
13:00 9.1° 1014.4 hPa 1.7 m/s 2.2 mm
19:00 4.9° 1015.2 hPa 1.2 m/s 1.6 mm
 06:50     18:21    Daglengte: 11:31 Zondag 08 Maa
01:00 2.7° 1016.6 hPa 1.6 m/s 0.9 mm
07:00 1.6° 1017.2 hPa 1.5 m/s 0.7 mm
13:00 8.4° 1015.8 hPa 1.5 m/s 0.8 mm
19:00 3.2° 1016.5 hPa 0.6 m/s 0.4 mm
 06:48     18:22    Daglengte: 11:34 Maandag 09 Maa
01:00 1.8° 1017.9 hPa 1.2 m/s 0.6 mm
07:00 1.0° 1017.6 hPa 1.2 m/s 1.0 mm
13:00 8.2° 1015.5 hPa 0.9 m/s 0.9 mm
19:00 3.3° 1016.4 hPa 0.4 m/s 1.0 mm
 06:46     18:23    Daglengte: 11:37 Dinsdag 10 Maa
01:00 2.1° 1017.3 hPa 1.3 m/s 1.2 mm
07:00 1.8° 1016.8 hPa 1.5 m/s 1.4 mm
FMI Hirlam - 7.5 km EWN WRFDA - 12 km DWD ICON - 7 km GFS - 25 km Basiskaart






























































Updatetijd (Europe/Brussels) Resolutie Lengte Stap
FMI Hirlam 06:15, 12:15, 18:15, 00:15 7.5 km 49h 1h
EWN WRFDA 02:15, 08:15, 14:15, 20:15 12 km 73h 1h
DWD ICON 04:45, 10:45, 16:45, 22:45 7 km 75h 1h
GFS 00:45, 06:45, 12:45, 18:45 25 km 237h 3h
30+ mm
25-30 mm
20-25 mm
15-20 mm
10-15 mm
6-10 mm
4-6 mm
2-4 mm
1-2 mm
0.5-1 mm
0.2-0.5 mm
0.1-0.2 mm
30+ mm
25-30 mm
20-25 mm
15-20 mm
10-15 mm
6-10 mm
4-6 mm
2-4 mm
1-2 mm
0.5-1 mm
0.2-0.5 mm
0.1-0.2 mm
Sneeuwval
Natte sneeuw
Hagel
Vorst
30+ mm
25-30 mm
20-25 mm
15-20 mm
10-15 mm
6-10 mm
4-6 mm
2-4 mm
1-2 mm
0.5-1 mm
0.2-0.5 mm
0.1-0.2 mm
Sneeuwval
Natte sneeuw
Hagel
Vorst
Onweer
50 mm
40 mm
30 mm
26 mm
22 mm
18 mm
14 mm
10 mm
9 mm
8 mm
7 mm
6 mm
5 mm
4.5 mm
4 mm
3.5 mm
3 mm
2.5 mm
2 mm
1.5 mm
1 mm
0.8 mm
0.6 mm
0.4 mm
0.2 mm
0.05 mm
35°
30°
25°
20°
15°
10°
-5°
-10°
-15°
-20°
-25°
-30°
-35°
33> m/s
29 m/s
25 m/s
21 m/s
17 m/s
14 m/s
11 m/s
8 m/s
5 m/s
3 m/s
0 m/s
2600 J/kg
2400 J/kg
2200 J/kg
2000 J/kg
1800 J/kg
1600 J/kg
1400 J/kg
1200 J/kg
1000 J/kg
800 J/kg
600 J/kg
400 J/kg
200 J/kg
70 dBZ
65 dBZ
60 dBZ
55 dBZ
50 dBZ
45 dBZ
40 dBZ
35 dBZ
30 dBZ
25 dBZ
20 dBZ
15 dBZ
10 dBZ
5 dBZ
-1 K
-2 K
-3 K
-4 K
-5 K
-6 K
-7 K
-8 K
-9 K
950 m²/s²
900 m²/s²
850 m²/s²
800 m²/s²
750 m²/s²
700 m²/s²
650 m²/s²
600 m²/s²
550 m²/s²
500 m²/s²
450 m²/s²
400 m²/s²
350 m²/s²
300 m²/s²
250 m²/s²
200 m²/s²
150 m²/s²
100 m²/s²
46 m/s
44 m/s
42 m/s
40 m/s
38 m/s
36 m/s
34 m/s
32 m/s
30 m/s
28 m/s
26 m/s
24 m/s
22 m/s
20 m/s
16 m/s
12 m/s
8 m/s
4 m/s
30 m/s
28 m/s
26 m/s
24 m/s
22 m/s
20 m/s
18 m/s
16 m/s
14 m/s
12 m/s
10 m/s
8 m/s
6 m/s
4 m/s
2 m/s
3.0
2.8
2.6
2.4
2.2
2.0
1.8
1.6
1.4
1.2
1.0
0.8
0.6
0.4
0.2
15
14
13
12
11
10
9
8
7
6
5
4
3
2
1
90%
80%
70%
60%
50%
40%
30%
20%
10%
42
40
38
36
34
32
30
28
26
24
22
20
18
16
14
12
90+ cm
80-90 cm
70-80 cm
60-70 cm
50-60 cm
40-50 cm
30-40 cm
20-30 cm
10-20 cm
1-10 cm
Sneeuwval
Natte sneeuw
Regen
>120 mm
115 mm
110 mm
105 mm
100 mm
95 mm
90 mm
85 mm
80 mm
75 mm
70 mm
65 mm
60 mm
55 mm
50 mm
45 mm
45 mm
40 mm
35 mm
30 mm
25 mm
20 mm
15 mm
10 mm
5 mm
0.1 mm
960 hPa
880 hPa
800 hPa
720 hPa
640 hPa
560 hPa
584 gpdm
568 gpdm
552 gpdm
536 gpdm
520 gpdm
504 gpdm
488 gpdm
Extreem zwaar Noodweer Kans op onweer
15% 15% 5% 50% 15%

Dag




Kaart






35°
30°
25°
20°
15°
10°
-5°
-10°
-15°
-20°
-25°
-30°
-35°
33> m/s
29 m/s
25 m/s
21 m/s
17 m/s
14 m/s
11 m/s
8 m/s
5 m/s
3 m/s
0 m/s
Extreem zwaar Noodweer Kans op onweer
15% 15% 5% 50% 15%
>120 mm
115 mm
110 mm
105 mm
100 mm
95 mm
90 mm
85 mm
80 mm
75 mm
70 mm
65 mm
60 mm
55 mm
50 mm
45 mm
45 mm
40 mm
35 mm
30 mm